CAPE
0 0 0 0 0 0 0 0 0 0 0 0 0 0 0 0 0 0 0 0 82 376 550 759 737 791 916 1065 1163 1344 1502 1669 1923 2000 2016 1922 1885 1976 1891 1805 1805 1787 1859 1478 1167 1417 1234 1068 1245
0 0 0 0 0 0 0 0 0 0 0 0 1 0 0 0 0 0 0 58 222 461 419 591 694 715 874 959 1120 1264 1446 1626 1831 1918 1916 1847 1796 1749 1694 1651 1680 1740 1678 1307 1039 913 982 1008 1240
0 0 0 0 0 0 0 0 0 0 0 0 10 1 7 18 0 0 0 241 406 410 409 491 572 584 808 906 1023 1175 1236 1336 1545 1695 1830 1757 1585 1401 1459 1529 1592 1706 1620 1078 930 798 817 926 835
0 0 0 0 0 0 0 0 0 0 0 0 0 0 2 0 0 0 90 380 335 357 435 504 426 480 709 861 968 1053 1011 993 1196 1451 1668 1667 1454 1224 1336 1361 1490 1540 1394 895 698 619 640 506 479
0 0 0 0 0 0 0 0 0 0 0 0 0 3 13 0 1 31 156 297 258 256 364 367 291 423 671 865 912 835 791 792 1042 1291 1402 1466 1449 1302 1204 1209 1383 1307 1190 878 596 430 310 208 177
0 0 0 0 0 0 0 0 0 0 0 0 0 14 16 0 0 15 72 116 224 297 266 272 301 420 577 700 658 521 522 657 840 1014 1135 1271 1140 1012 1060 1074 1122 1103 907 673 352 147 58 5 0
0 0 0 0 0 0 0 0 0 0 0 0 3 20 0 0 0 0 1 40 120 240 196 218 245 393 438 494 386 293 355 487 599 733 887 870 720 735 881 871 899 824 550 273 140 29 0 0 0
0 0 0 0 0 0 0 0 0 0 0 0 15 8 2 0 0 0 7 20 83 146 126 201 200 266 259 257 165 160 223 270 358 502 611 548 542 624 683 651 673 557 313 145 33 0 0 0 0
0 0 0 0 0 0 0 0 0 0 0 0 16 5 0 0 0 0 0 4 16 26 81 140 221 240 186 119 116 111 175 158 189 311 364 257 210 391 507 414 453 324 66 20 4 0 0 0 0
0 0 0 0 0 0 0 0 0 0 0 0 0 0 0 0 0 0 0 0 1 2 13 46 83 108 85 143 95 25 69 68 57 69 60 14 17 80 250 258 303 148 7 0 0 0 0 0 0
0 0 0 0 0 0 0 0 0 0 0 0 0 0 0 0 0 0 0 0 0 0 2 28 71 85 64 115 76 23 37 13 2 0 0 0 0 15 34 26 116 20 0 0 0 0 0 0 0
0 0 0 0 0 0 0 0 0 0 0 0 0 0 0 0 0 0 0 0 0 0 0 12 59 61 56 80 45 5 16 5 1 1 0 0 0 1 1 1 6 1 0 0 0 0 0 0 0
0 0 0 0 0 0 0 0 0 0 0 0 11 0 0 0 6 0 0 0 0 0 0 2 25 43 56 58 28 1 2 1 1 1 0 0 0 0 0 0 1 1 0 0 0 0 0 0 0
0 0 0 0 0 0 0 0 0 0 0 0 0 31 0 6 0 13 55 5 0 0 0 1 19 34 62 51 13 4 1 1 0 0 0 0 0 0 0 0 0 1 0 0 0 0 0 0 0
0 0 0 0 0 0 0 0 0 0 0 0 1 4 13 21 6 39 123 76 4 0 0 0 15 39 33 33 0 0 0 0 0 0 0 0 0 0 0 0 0 0 0 0 0 0 0 0 0
0 0 0 0 0 0 0 0 0 0 0 0 0 0 2 0 15 21 41 175 72 17 0 0 0 9 2 4 0 0 0 0 0 0 0 0 0 0 0 0 0 0 0 0 0 0 0 0 0
0 0 0 0 0 0 0 0 0 0 0 0 0 0 0 0 0 4 24 132 184 82 11 0 0 0 0 0 0 0 0 0 0 0 0 0 0 0 0 0 0 0 0 0 0 0 0 0 0
0 0 0 0 0 0 0 0 0 0 0 0 0 0 0 0 0 0 13 36 189 171 116 13 0 0 0 0 0 0 0 0 0 0 0 0 0 0 0 0 0 0 0 0 0 0 0 0 0
0 0 0 0 0 0 0 0 0 0 0 0 0 0 0 0 0 0 0 17 48 225 175 142 24 0 0 0 0 0 0 0 0 0 0 0 0 0 0 0 0 0 0 0 0 0 0 0 0
0 0 0 0 0 0 0 0 0 0 0 0 0 0 0 0 0 0 0 0 28 125 270 251 169 36 0 0 0 0 0 0 0 0 0 0 0 0 0 0 0 0 0 0 0 0 0 0 0
0 0 0 0 0 0 0 0 0 0 0 0 0 0 0 0 0 0 0 18 11 84 244 321 269 207 65 0 0 2 19 3 0 0 0 0 0 0 0 0 0 0 0 0 0 0 0 0 0
0 0 0 0 0 0 0 0 0 0 0 0 0 0 0 0 0 0 0 0 46 7 214 348 379 283 249 78 11 11 156 122 99 70 3 0 0 0 2 4 0 0 0 0 0 0 0 0 0
0 0 0 0 0 0 0 0 0 0 0 0 0 0 0 0 0 0 0 0 0 0 68 256 422 394 389 264 133 43 67 129 156 166 141 22 0 0 0 0 0 0 0 0 0 0 0 0 0
0 0 0 0 0 0 0 0 0 0 0 0 0 0 0 0 0 0 0 0 0 0 12 139 366 398 444 406 304 165 52 55 110 347 322 215 136 6 0 14 1 0 0 0 0 0 0 0 0
0 0 0 0 0 0 0 1 0 0 0 0 0 0 0 0 0 0 0 0 0 0 0 111 258 443 501 542 445 340 198 97 40 214 498 410 320 195 105 49 61 41 0 0 0 0 0 0 0
0 0 0 2 0 0 0 0 0 0 0 0 0 0 0 0 0 0 0 0 0 0 0 80 240 392 517 667 636 572 517 319 178 92 283 462 450 436 364 193 152 92 92 22 0 0 0 0 0
0 0 0 1 1 9 0 0 0 0 0 0 0 0 0 0 0 0 0 0 0 0 0 0 201 417 498 588 813 775 741 589 396 335 259 331 332 327 296 261 225 254 148 99 60 7 0 0 0
0 0 0 3 0 0 0 0 4 0 0 0 0 0 0 0 0 0 0 0 0 0 0 0 0 101 282 373 569 800 755 780 625 298 157 112 233 318 262 273 260 289 335 288 167 120 73 12 0
0 0 0 4 1 33 13 1 0 1 0 0 0 0 0 0 0 0 0 0 0 0 0 0 0 0 0 99 224 411 394 351 314 188 48 51 201 280 312 348 433 438 378 347 324 289 271 132 82
0 0 0 5 0 0 15 0 0 0 0 0 0 1 0 0 0 0 0 0 0 0 0 0 0 0 0 0 1 106 163 223 310 182 66 91 79 136 442 426 464 486 482 427 330 338 378 349 223
CIN
0 0 0 0 0 0 0 0 0 0 0 0 0 0 0 0 0 0 0 0 -611 -365 -198 -140 -154 -141 -144 -103 -79 -50 -23 -4 0 0 0 -1 -3 0 -13 -20 -13 -6 -1 -15 -28 -5 -11 -21 -6
0 0 0 0 0 0 0 0 0 0 0 0 -169 0 0 0 0 0 0 -628 -552 -348 -257 -181 -163 -154 -139 -116 -79 -54 -28 -8 0 0 0 0 -1 -9 -23 -27 -24 -15 -12 -26 -40 -47 -41 -35 -5
0 0 0 0 0 0 0 0 0 0 0 0 -320 -168 -309 -533 0 0 0 -598 -468 -359 -270 -214 -186 -201 -153 -119 -98 -61 -40 -34 -4 -2 0 -1 -6 -21 -24 -19 -16 -9 -10 -46 -59 -71 -66 -47 -57
0 0 0 0 0 0 0 0 0 0 0 0 0 -10 -361 -130 0 0 -819 -567 -500 -376 -281 -235 -235 -222 -177 -135 -113 -94 -61 -69 -33 -16 -5 -7 -8 -18 -10 -11 -7 -2 -6 -42 -72 -83 -80 -103 -98
0 0 0 0 0 0 0 0 0 0 0 0 0 -129 -579 -80 -275 -1070 -818 -638 -571 -453 -323 -289 -297 -244 -184 -138 -125 -134 -121 -86 -51 -16 -10 -20 -15 -7 -10 -18 -12 -13 -15 -38 -62 -97 -134 -163 -172
0 0 0 0 0 0 0 0 0 0 0 0 -20 -385 -537 0 -73 -1113 -926 -767 -593 -488 -409 -344 -294 -243 -212 -173 -180 -208 -201 -128 -71 -37 -16 -14 -25 -34 -24 -22 -24 -25 -48 -72 -122 -217 -295 -99 0
0 0 0 0 0 0 0 0 0 0 0 0 -464 -401 0 0 0 0 -237 -876 -674 -528 -484 -402 -338 -253 -233 -227 -254 -281 -252 -201 -145 -87 -37 -40 -69 -65 -42 -40 -36 -50 -100 -171 -209 -311 0 0 0
0 0 0 0 0 0 0 0 0 0 0 0 -529 -241 -201 0 0 -55 -974 -901 -722 -597 -550 -454 -400 -326 -304 -287 -344 -338 -291 -266 -223 -164 -113 -107 -103 -77 -68 -84 -74 -101 -167 -219 -300 0 0 0 0
0 0 0 0 0 0 0 0 0 0 0 0 -432 -518 0 0 0 0 0 -586 -866 -787 -638 -521 -426 -371 -359 -381 -364 -363 -312 -302 -275 -222 -190 -212 -214 -140 -106 -133 -129 -166 -282 -351 -100 0 0 0 0
0 0 0 0 0 0 0 0 0 0 0 0 0 0 0 0 0 0 0 0 0 0 -870 -711 -593 -508 -473 -388 -391 -452 -369 -368 -372 -343 -350 -468 -416 -294 -170 -161 -143 -216 -340 0 0 0 0 0 0
0 0 0 0 0 0 0 0 0 0 0 0 0 0 0 0 0 0 0 0 0 0 -107 -852 -693 -613 -588 -471 -456 -486 -427 -461 -250 -26 0 0 0 -394 -321 -335 -240 -346 -55 0 0 0 0 0 0
0 0 0 0 0 0 0 0 0 0 0 0 0 0 0 0 0 0 0 0 0 0 0 -938 -783 -730 -695 -594 -591 -549 -527 -501 0 0 0 0 0 0 0 0 -383 0 0 0 0 0 0 0 0
0 0 0 0 0 0 0 0 0 0 0 0 -508 0 0 0 -939 -150 0 0 0 0 0 0 -899 -829 -761 -716 -712 -289 0 0 0 0 0 0 0 0 0 0 0 0 0 0 0 0 0 0 0
0 0 0 0 0 0 0 0 0 0 0 0 -26 -500 0 -754 0 -866 -955 -1066 0 0 0 0 -967 -893 -808 -790 -839 -850 0 0 0 0 0 0 0 0 0 0 0 0 0 0 0 0 0 0 0
0 0 0 0 0 0 0 0 0 0 0 0 -47 -158 -430 -580 -739 -805 -785 -919 -786 0 0 0 -1029 -937 -912 -866 0 0 0 0 0 0 0 0 0 0 0 0 0 0 0 0 0 0 0 0 0
0 0 0 0 0 0 0 0 0 0 0 0 0 0 -193 0 -568 -676 -771 -743 -881 -1006 0 0 0 -824 -200 -744 0 0 0 0 0 0 0 0 0 0 0 0 0 0 0 0 0 0 0 0 0
0 0 0 0 0 0 0 0 0 0 0 0 0 0 0 0 0 -558 -664 -736 -754 -878 -622 0 0 0 0 0 0 0 0 0 0 0 0 0 0 0 0 0 0 0 0 0 0 0 0 0 0
0 0 0 0 0 0 0 0 0 0 0 0 0 0 0 0 0 0 -532 -643 -662 -729 -819 -993 0 0 0 0 0 0 0 0 0 0 0 0 0 0 0 0 0 0 0 0 0 0 0 0 0
0 0 0 0 0 0 0 0 0 0 0 0 0 0 0 0 0 0 0 -482 -554 -618 -650 -774 -942 0 0 0 0 0 0 0 0 0 0 0 0 0 0 0 0 0 0 0 0 0 0 0 0
0 0 0 0 0 0 0 0 0 0 0 0 0 0 0 0 0 0 0 0 -421 -549 -601 -640 -749 -849 0 0 0 0 0 0 0 0 0 0 0 0 0 0 0 0 0 0 0 0 0 0 0
0 0 0 0 0 0 0 0 0 0 0 0 0 0 0 0 0 0 0 -288 -214 -424 -537 -588 -660 -737 -853 0 0 -278 -384 -377 0 0 0 0 0 0 0 0 0 0 0 0 0 0 0 0 0
0 0 0 0 0 0 0 0 0 0 0 0 0 0 0 0 0 0 0 0 -306 -180 -411 -534 -596 -643 -749 -787 -885 -925 -768 -771 -872 -876 -721 0 0 0 -923 -804 0 0 0 0 0 0 0 0 0
0 0 0 0 0 0 0 0 0 0 0 0 0 0 0 0 0 0 0 0 0 0 -264 -405 -520 -594 -631 -671 -724 -853 -822 -778 -742 -724 -740 -833 0 0 0 0 0 0 0 0 0 0 0 0 0
0 0 0 0 0 0 0 0 0 0 0 0 0 0 0 0 0 0 0 0 0 0 -278 -285 -414 -546 -600 -629 -646 -704 -790 -768 -714 -641 -654 -703 -741 -445 0 -640 -138 0 0 0 0 0 0 0 0
0 0 0 0 0 0 -3 -2 0 0 0 0 0 0 0 0 0 0 0 0 0 0 0 -276 -364 -463 -540 -578 -619 -627 -700 -720 -775 -727 -648 -627 -633 -675 -758 -789 -727 -688 0 0 0 0 0 0 0
0 0 0 0 0 0 0 0 0 -14 -27 0 0 0 0 0 0 0 0 0 0 0 0 -303 -323 -428 -499 -536 -578 -599 -613 -639 -652 -675 -632 -591 -594 -603 -629 -669 -612 -631 -592 -664 0 0 0 0 0
0 0 0 -2 -41 0 0 0 0 0 0 0 0 0 0 0 0 0 0 0 0 0 0 0 -393 -416 -440 -505 -472 -478 -492 -481 -545 -551 -525 -500 -505 -563 -578 -582 -558 -509 -521 -551 -576 -626 0 0 0
0 0 0 -10 -2 0 0 0 0 0 0 0 0 0 0 0 0 0 0 0 0 0 0 0 0 -436 -495 -442 -385 -314 -324 -373 -412 -589 -420 -530 -544 -454 -472 -501 -517 -505 -479 -488 -497 -476 -504 -419 0
0 0 0 -5 -11 -4 -15 -5 0 -2 0 0 0 0 0 0 0 0 0 0 0 0 0 0 0 0 0 -582 -461 -355 -366 -388 -443 -413 -391 -364 -459 -357 -333 -397 -421 -421 -441 -421 -406 -410 -378 -421 -459
0 0 0 -1 0 0 -1 -4 0 0 0 0 0 -21 0 0 0 0 0 0 0 0 0 0 0 0 0 0 -279 -527 -453 -326 -215 -183 -205 -284 -131 -131 -305 -349 -372 -338 -349 -355 -348 -318 -331 -307 -334
Wind_Speed
6 3 3 3 5 5 3 5 3 5 1 4 8 6 8 1 3 5 4 8 18 16 15 14 17 17 19 18 18 18 18 17 16 16 15 17 17 16 16 16 15 14 15 16 16 17 17 18 16
3 4 4 2 5 3 5 3 2 0 5 7 7 3 5 1 3 7 7 9 18 16 15 13 16 18 18 18 17 17 18 18 16 16 15 15 15 15 15 15 14 15 15 17 17 17 17 15 12
1 3 4 5 3 4 4 3 7 5 3 2 3 4 2 9 3 9 9 15 15 17 16 12 16 18 19 18 17 15 16 17 15 16 16 16 15 15 14 13 12 13 15 17 17 17 16 13 12
3 5 5 5 4 6 3 7 5 1 5 2 3 3 4 5 16 9 17 17 16 16 16 13 15 16 19 19 17 17 13 14 15 14 15 16 15 14 13 11 12 12 13 15 15 15 12 11 10
5 3 3 3 5 6 4 8 2 6 3 4 3 2 3 5 10 19 18 16 17 15 15 12 14 16 18 18 18 17 15 12 14 13 13 15 15 13 11 10 12 12 12 12 12 11 10 9 8
4 4 3 3 5 5 7 6 9 7 6 5 6 4 5 6 12 15 15 13 11 16 16 11 14 15 16 17 17 16 16 14 12 13 12 13 13 13 11 11 11 11 10 10 11 10 10 10 9
6 4 4 3 4 3 4 8 8 7 5 5 7 3 2 4 8 15 12 10 9 12 15 10 10 11 13 14 14 14 15 16 14 13 12 11 11 11 10 10 10 10 10 10 10 9 8 7 7
5 4 1 3 2 5 3 5 4 6 6 4 7 6 6 8 15 13 12 10 10 12 13 10 9 8 9 9 13 13 12 13 14 14 12 12 11 11 11 11 11 11 10 10 9 8 7 7 6
2 4 3 5 4 4 3 8 8 8 7 2 6 5 5 16 15 15 14 10 11 11 13 10 10 10 9 8 10 13 14 12 11 13 13 10 5 7 9 8 11 10 9 9 9 8 7 6 4
5 3 8 5 2 1 13 6 6 9 9 3 3 6 18 18 18 19 19 17 15 16 16 15 15 15 13 8 8 7 8 7 6 5 6 5 5 5 5 6 8 9 9 8 8 6 5 3 2
2 5 3 5 6 2 7 14 7 2 8 6 6 8 19 16 17 17 18 23 24 18 13 17 17 16 15 9 8 5 5 5 4 6 6 5 4 4 3 3 3 3 6 3 4 3 2 3 2
5 4 4 6 9 9 5 13 16 8 11 7 9 18 20 20 20 21 20 18 20 18 15 18 18 16 14 7 9 8 7 7 7 6 7 6 4 5 4 4 6 4 3 4 4 3 3 5 5
2 5 10 9 10 10 7 7 8 19 11 13 7 13 17 14 12 11 10 9 12 17 17 18 18 17 14 11 9 8 9 8 7 7 7 6 5 6 5 4 5 5 4 4 4 4 4 4 5
6 9 10 6 11 6 9 7 3 6 2 7 8 12 16 16 15 7 9 13 16 16 18 17 18 16 14 12 12 9 8 8 6 6 7 8 6 6 6 4 5 4 5 4 4 5 4 5 4
6 8 11 8 4 6 6 11 11 6 6 7 11 11 15 17 11 16 13 14 16 14 15 18 18 15 15 14 11 9 8 8 8 7 8 10 7 6 7 5 5 5 4 5 4 4 3 4 4
6 2 5 7 15 7 4 20 4 6 5 10 11 9 15 15 18 17 14 13 13 13 16 15 14 16 16 14 11 9 8 8 8 8 8 11 10 8 6 6 7 5 5 5 5 4 5 5 4
7 4 4 10 13 15 12 17 15 20 10 8 10 10 12 15 19 18 18 17 17 16 16 17 18 18 17 14 10 10 10 9 8 8 8 12 12 11 9 7 6 6 6 6 6 5 5 5 6
8 10 5 8 8 20 21 29 17 18 19 16 9 11 10 12 19 21 21 19 19 18 16 15 15 17 16 10 9 8 8 9 8 9 9 12 11 13 11 8 6 8 6 6 5 6 5 4 6
5 6 9 12 12 14 17 24 23 16 17 14 8 7 11 13 14 17 17 19 19 19 18 20 18 18 15 13 13 12 13 10 10 10 13 13 12 13 12 10 8 9 10 10 9 6 7 6 3
4 7 8 8 11 13 12 24 21 21 21 18 18 15 9 9 15 14 17 18 19 20 23 20 22 19 19 15 14 11 11 9 9 9 11 13 14 14 13 13 11 12 8 8 9 9 4 5 6
4 5 5 13 12 7 10 22 14 15 15 11 13 13 7 9 11 17 15 18 20 22 23 23 24 23 20 22 13 7 6 2 7 10 12 13 15 15 15 14 12 11 10 10 9 11 11 9 4
4 8 9 8 7 3 4 13 15 15 19 18 10 13 12 10 7 6 11 12 19 24 24 25 25 25 23 21 17 21 17 16 15 15 12 12 16 16 16 15 14 12 10 13 10 9 11 8 8
8 7 9 11 8 5 4 8 6 9 15 10 10 12 10 11 8 10 10 12 15 19 22 22 23 25 23 22 21 18 19 16 12 10 14 15 13 17 17 16 15 15 11 13 13 9 11 9 10
10 5 6 7 4 9 6 8 6 3 8 7 12 13 14 14 17 16 12 9 10 16 22 23 24 25 24 24 25 24 24 19 12 14 13 12 12 11 16 16 15 13 13 14 12 11 11 12 11
8 4 4 5 3 10 6 8 6 11 10 10 8 10 13 14 15 16 15 14 13 11 18 22 23 23 23 24 25 24 24 21 20 18 14 15 12 10 16 18 16 14 15 14 11 11 12 12 12
7 3 4 4 5 6 9 6 4 8 13 18 16 14 18 19 18 20 19 16 15 15 12 19 20 21 20 22 24 23 23 14 12 10 9 11 12 13 13 14 14 15 14 13 12 10 11 13 12
6 3 2 3 3 4 5 8 8 19 21 22 21 19 19 20 21 20 20 20 21 21 16 9 9 14 15 18 15 18 16 17 15 10 6 6 8 7 8 9 12 12 13 14 14 11 13 12 13
4 4 1 3 3 4 5 5 11 20 18 20 19 18 16 17 20 21 21 23 22 21 20 19 10 6 2 6 7 9 9 10 9 6 9 8 6 7 7 9 12 14 14 14 14 12 13 13 11
5 5 5 3 0 3 4 3 9 11 7 10 15 11 8 14 15 19 20 21 22 23 24 22 18 14 7 1 3 7 7 7 6 4 6 11 8 12 15 13 13 13 12 12 13 15 15 15 15
1 3 5 3 5 3 4 4 10 12 11 12 14 15 15 14 15 16 19 21 21 22 22 23 22 20 14 10 1 3 3 3 5 2 4 2 13 10 9 8 10 11 12 13 14 16 15 17 16
Wind_Direction
304 173 144 51 51 50 299 360 214 340 102 212 131 168 178 63 163 208 115 129 133 146 164 163 154 147 135 130 126 126 121 118 118 118 121 124 123 120 118 115 113 116 117 115 114 112 111 110 107
326 134 45 75 83 72 287 266 13 152 107 106 115 117 142 139 105 112 116 149 136 145 161 162 158 148 138 134 131 130 128 124 123 120 120 120 121 122 118 117 120 123 122 120 118 117 115 113 105
167 49 78 84 106 166 219 286 12 119 170 6 48 23 248 151 92 149 130 142 133 150 160 162 160 151 142 139 136 132 132 128 128 126 125 121 122 120 119 118 122 125 126 126 125 122 120 113 110
24 11 33 84 258 254 230 335 16 319 308 170 104 54 350 252 151 149 137 137 141 154 161 158 160 155 146 144 141 135 135 133 133 133 130 128 128 127 121 120 125 125 126 126 125 123 118 117 119
34 55 48 80 258 275 324 306 39 249 248 139 87 234 43 6 104 130 140 141 148 154 161 158 160 156 150 149 146 141 138 140 136 137 138 136 134 132 132 135 129 127 125 124 119 114 113 117 122
42 94 70 229 242 297 296 298 327 235 242 118 103 129 170 127 133 144 142 142 148 151 159 160 162 158 154 153 151 148 146 145 144 143 141 138 136 138 143 139 131 129 128 127 126 128 133 138 141
108 91 219 216 236 294 246 327 23 338 56 343 145 106 314 177 153 141 133 123 135 149 158 158 163 162 157 153 154 153 154 152 153 148 145 142 142 145 146 141 138 138 141 139 137 139 148 151 152
103 91 252 251 183 261 272 5 334 331 346 121 136 180 239 186 151 123 115 118 131 150 164 161 160 161 164 164 157 155 159 158 158 155 154 153 154 156 157 154 154 154 155 155 154 158 164 167 175
109 73 229 256 199 255 119 30 317 302 339 268 186 164 181 141 137 128 126 134 149 160 170 173 168 167 171 166 172 161 161 163 164 162 161 156 156 164 166 167 165 164 169 171 172 176 181 191 209
96 144 218 230 263 335 301 101 314 336 333 308 21 33 124 150 158 159 164 163 170 173 176 178 182 181 178 174 171 166 169 169 168 164 167 158 155 158 162 170 174 174 175 180 185 192 205 221 237
153 214 249 291 302 107 308 317 151 194 301 264 292 170 153 168 177 178 181 179 173 170 173 181 181 182 181 174 174 172 172 172 174 166 162 155 154 160 154 155 177 174 186 187 189 216 233 245 250
347 284 310 299 343 339 329 306 316 180 244 263 259 174 166 180 190 188 188 181 173 170 175 179 182 182 183 169 178 176 179 182 185 186 169 167 169 175 175 179 185 179 177 192 196 200 229 259 267
228 335 322 312 300 296 291 270 274 280 283 284 140 158 183 202 202 199 190 184 179 178 175 181 182 182 181 173 176 178 184 186 186 183 181 174 177 184 175 181 180 189 170 188 201 209 224 245 259
312 299 297 310 307 247 270 272 209 273 292 259 177 188 193 200 206 199 188 191 194 186 184 176 184 184 178 177 180 182 179 181 178 183 188 185 182 181 183 182 192 193 191 190 192 202 214 235 240
301 316 332 320 325 291 230 270 234 281 223 245 218 201 202 205 194 209 213 208 195 200 184 182 179 179 181 182 179 181 185 179 184 189 185 189 184 182 182 185 193 199 189 187 191 212 216 238 243
350 64 356 326 343 328 306 276 292 278 210 244 257 237 208 204 206 207 206 209 203 197 194 187 186 184 184 186 181 183 184 184 193 189 188 191 193 184 183 192 200 186 177 189 198 203 223 234 226
13 322 352 331 335 353 25 301 331 335 342 285 266 245 224 216 219 213 204 197 197 200 191 189 189 190 189 187 182 186 183 190 193 191 194 197 194 194 196 199 199 176 187 198 200 210 209 218 232
310 316 302 301 311 315 309 296 301 304 302 298 280 266 262 234 226 220 210 198 195 195 195 196 198 187 186 185 184 190 187 195 193 198 201 198 202 195 196 205 189 182 192 202 195 203 204 214 225
274 290 294 302 286 281 279 280 295 300 295 297 287 262 262 271 247 234 221 209 198 191 192 197 196 197 181 187 190 193 200 195 199 200 202 200 203 200 197 205 192 192 202 207 202 201 202 228 182
295 304 304 276 326 304 281 279 285 286 286 278 282 279 248 242 265 261 230 214 203 198 198 193 199 196 197 193 197 202 192 206 202 201 205 201 200 201 204 207 204 202 205 204 195 197 204 225 171
272 247 273 285 303 301 278 277 278 278 277 279 273 273 262 249 240 246 240 222 207 203 198 198 198 197 199 203 186 180 177 125 193 206 209 203 198 202 204 206 207 206 209 214 206 204 206 229 198
287 226 258 279 317 324 354 290 307 297 291 292 284 284 286 293 330 270 262 244 219 213 204 203 199 196 198 194 193 191 193 196 206 206 202 203 200 204 203 204 202 200 203 218 209 200 210 206 221
254 276 266 278 287 293 278 283 328 347 312 305 296 296 296 299 305 308 240 233 250 231 213 207 205 199 197 191 196 197 202 209 205 199 199 200 198 205 204 205 204 208 206 216 214 197 199 205 224
289 314 275 253 216 265 246 237 288 289 254 268 290 329 332 332 333 322 303 273 253 244 222 213 206 204 196 194 195 198 205 207 196 198 196 200 202 198 205 205 210 210 211 212 211 208 202 210 219
7 14 342 340 341 276 265 239 271 303 330 14 23 355 345 357 354 355 337 341 331 279 226 215 208 208 200 199 196 200 206 206 205 197 198 194 196 196 207 202 203 207 212 214 209 205 210 209 216
305 75 135 302 301 296 297 267 43 8 14 16 360 2 7 358 358 0 354 352 353 327 277 215 206 208 201 200 207 202 207 201 208 215 213 212 201 206 197 203 208 213 211 212 207 210 216 218 218
315 23 261 211 240 271 267 304 329 2 14 13 4 1 5 5 10 1 359 7 8 6 347 333 233 207 206 209 209 215 207 207 195 191 191 213 233 218 193 189 204 212 214 214 210 214 220 218 220
71 301 331 359 315 314 299 44 3 355 8 5 0 358 4 21 14 17 20 19 16 14 12 15 9 26 166 180 199 209 210 218 247 151 207 186 185 190 186 186 198 208 213 213 210 216 223 220 223
350 19 350 314 275 305 295 89 8 347 358 19 334 333 4 13 13 10 16 14 13 10 13 18 12 13 2 357 198 187 176 166 153 179 185 195 175 207 210 204 207 214 214 214 214 218 221 219 223
168 58 41 7 331 282 268 258 38 21 0 356 358 358 4 19 11 20 16 20 12 14 13 10 9 11 10 356 316 90 88 163 172 209 298 359 231 222 213 205 206 215 218 215 217 223 220 221 220